sat.trackr.live / text

‹ back to catalog

STARLINK-31880

NORAD 59661 · 2024-084H

PAYLOAD ACTIVE UNKNOWN

§ Identity

Operator
Country
US
Launch date
2024-05-06
Launch site
AFETR
Launch vehicle
Mass (kg)
RCS (m²)

Purposes: comms

External: N2YO · Heavens-Above · Gunter

§ Orbital elements

Epoch: 2026-09-21T18:37:04.986624Z

Period
94.27 min
Inclination
43.0007°
Eccentricity
0.0000647
Mean motion
15.27578054 rev/d
Perigee alt
482.6 km
Apogee alt
483.5 km
Semi-major
6,861.2 km
B*
2.5687e-5
RAAN
10.8063°
Arg perigee
251.9948°
Mean anomaly
108.0834°
Rev number
13,440

§ Raw data

STARLINK-318801 59661U 24084H   26264.77575216  .00000445  00000+0  25687-4 0  99992 59661  43.0007  10.8063 0000647 251.9948 108.0834 15.27578054134406

JSON: /api/v1/satellites/59661 · /tle

For live sub-satellite position, see the globe view (requires WebGL).

§ Visibility from observer

Set your observer location to see the next 7 days of passes ≥ 10°. The values pass through the URL so the page stays shareable.

No JS? Fill the form by hand. The geolocation button needs JavaScript.